UAE421 OMDB-EHAM

Flight info

Callsign UAE421
Flight time 7h 12m
Altitude 34000
Route SENPA N571 ALPOB L768 VATIM/N0491F360 L550 NOVPA J981 DATOK L550 GENIV L324 LAKTO DCT OTHON UN128 RDS UL609 MES DCT FSK/N0479F380 UL608 DISOR DCT LONTA UL608 DOLEV DCT GUBOK DCT OBUTI DCT LAMSI DCT MAPOX L604 BIGGE DCT AMSAN T281 NORKU
Aircraft B77W/H-SDE1E2E3FGHIJ2J3J4J5M1RWXY/LB1D1

Departure

Time 2026-05-07 09:01
Airport Dubai International Airport (OMDB)

Arrival

Time 2026-05-07 16:14
Airport Amsterdam Airport Schiphol (EHAM)
Time Latitude Longitude Altitude Speed Heading
2026-05-07 08:37 25.25281 55.35571 17 ft 0 kts 212°
2026-05-07 08:46 25.25282 55.35571 17 ft 0 kts 212°
2026-05-07 08:47 25.25293 55.35579 17 ft 2 kts 212°
2026-05-07 08:47 25.25307 55.35588 19 ft 2 kts 212°
2026-05-07 08:47 25.25321 55.35598 19 ft 2 kts 212°
2026-05-07 08:48 25.25333 55.35609 18 ft 2 kts 230°
2026-05-07 08:48 25.25343 55.35623 20 ft 2 kts 243°
2026-05-07 08:48 25.25348 55.35640 20 ft 2 kts 271°
2026-05-07 08:48 25.25345 55.35658 22 ft 2 kts 297°
2026-05-07 08:49 25.25343 55.35662 19 ft 1 kts 298°
2026-05-07 08:49 25.25345 55.35659 22 ft 0 kts 298°
2026-05-07 08:53 25.25357 55.35634 17 ft 7 kts 298°
2026-05-07 08:53 25.25391 55.35570 17 ft 12 kts 301°
2026-05-07 08:54 25.25445 55.35473 18 ft 17 kts 301°
2026-05-07 08:54 25.25513 55.35351 19 ft 20 kts 302°
2026-05-07 08:54 25.25577 55.35235 24 ft 15 kts 301°
2026-05-07 08:54 25.25653 55.35164 25 ft 15 kts 357°
2026-05-07 08:55 25.25751 55.35208 21 ft 17 kts 31°
2026-05-07 08:55 25.25851 55.35275 20 ft 17 kts 31°
2026-05-07 08:55 25.25952 55.35343 26 ft 17 kts 35°
2026-05-07 08:55 25.25997 55.35457 23 ft 17 kts 91°
2026-05-07 08:56 25.25965 55.35582 23 ft 17 kts 114°
2026-05-07 08:56 25.25903 55.35693 25 ft 17 kts 125°
2026-05-07 08:56 25.25841 55.35803 26 ft 17 kts 122°
2026-05-07 08:56 25.25775 55.35912 25 ft 17 kts 123°
2026-05-07 08:57 25.25713 55.36023 26 ft 17 kts 121°
2026-05-07 08:57 25.25652 55.36134 26 ft 17 kts 121°
2026-05-07 08:57 25.25588 55.36255 27 ft 22 kts 120°
2026-05-07 08:57 25.25497 55.36416 27 ft 25 kts 122°
2026-05-07 08:58 25.25406 55.36580 26 ft 25 kts 121°
2026-05-07 08:58 25.25315 55.36744 28 ft 25 kts 122°
2026-05-07 08:58 25.25225 55.36905 31 ft 25 kts 121°
2026-05-07 08:58 25.25134 55.37072 37 ft 25 kts 122°
2026-05-07 08:59 25.25041 55.37239 40 ft 25 kts 120°
2026-05-07 08:59 25.24948 55.37408 43 ft 26 kts 122°
2026-05-07 08:59 25.24854 55.37576 42 ft 26 kts 122°
2026-05-07 08:59 25.24761 55.37746 44 ft 26 kts 121°
2026-05-07 09:00 25.24735 55.37864 44 ft 14 kts 65°
2026-05-07 09:00 25.24811 55.37921 44 ft 14 kts 12°
2026-05-07 09:00 25.24888 55.37871 45 ft 14 kts 301°
2026-05-07 09:00 25.24942 55.37776 44 ft 21 kts 301°
2026-05-07 09:01 25.25110 55.37471 45 ft 86 kts 302°
2026-05-07 09:01 25.25578 55.36629 35 ft 173 kts 301°
2026-05-07 09:01 25.26317 55.35309 392 ft 211 kts 305°
2026-05-07 09:01 25.26881 55.34442 1244 ft 202 kts 301°
2026-05-07 09:02 25.27670 55.33162 2318 ft 205 kts 296°
2026-05-07 09:02 25.28640 55.31319 3086 ft 216 kts 296°
2026-05-07 09:02 25.29382 55.29871 3661 ft 217 kts 289°
2026-05-07 09:02 25.29651 55.28257 4166 ft 216 kts 273°
2026-05-07 09:03 25.29771 55.26582 4708 ft 221 kts 276°
2026-05-07 09:03 25.29911 55.24879 5300 ft 223 kts 276°
2026-05-07 09:03 25.30003 55.23745 5696 ft 224 kts 277°
2026-05-07 09:03 25.30145 55.21989 6227 ft 229 kts 277°
2026-05-07 09:04 25.30286 55.20241 6701 ft 233 kts 277°
2026-05-07 09:04 25.30425 55.18440 7157 ft 238 kts 275°
2026-05-07 09:04 25.30380 55.16588 7592 ft 244 kts 267°
2026-05-07 09:04 25.30219 55.14703 8039 ft 248 kts 266°
2026-05-07 09:05 25.30046 55.12793 8512 ft 252 kts 266°
2026-05-07 09:05 25.29877 55.10862 8967 ft 254 kts 266°
2026-05-07 09:05 25.29711 55.08882 9368 ft 269 kts 266°
2026-05-07 09:05 25.29537 55.06729 9598 ft 292 kts 266°
2026-05-07 09:06 25.29355 55.04455 10114 ft 303 kts 266°
2026-05-07 09:06 25.29166 55.02046 10364 ft 327 kts 265°
2026-05-07 09:06 25.28964 54.99445 10544 ft 353 kts 265°
2026-05-07 09:06 25.28745 54.96640 10695 ft 378 kts 265°
2026-05-07 09:07 25.28533 54.93688 11203 ft 389 kts 267°
2026-05-07 09:07 25.28436 54.90677 11886 ft 396 kts 268°
2026-05-07 09:07 25.28375 54.87612 12559 ft 403 kts 268°
2026-05-07 09:07 25.28301 54.84497 13263 ft 408 kts 267°
2026-05-07 09:08 25.28215 54.81348 13965 ft 413 kts 267°
2026-05-07 09:08 25.28121 54.78166 14714 ft 414 kts 267°
2026-05-07 09:08 25.28050 54.74983 15490 ft 415 kts 271°
2026-05-07 09:08 25.28480 54.71820 16112 ft 420 kts 285°
2026-05-07 09:09 25.29336 54.68714 16775 ft 424 kts 287°
2026-05-07 09:09 25.30217 54.65596 17482 ft 427 kts 286°
2026-05-07 09:09 25.31067 54.62456 18284 ft 426 kts 285°
2026-05-07 09:09 25.31879 54.59302 18949 ft 428 kts 284°
2026-05-07 09:10 25.32676 54.56123 19547 ft 431 kts 284°
2026-05-07 09:10 25.33477 54.52920 20135 ft 434 kts 285°
2026-05-07 09:10 25.34322 54.49713 20738 ft 437 kts 285°
2026-05-07 09:10 25.35204 54.46484 21309 ft 440 kts 286°
2026-05-07 09:11 25.36086 54.43276 21857 ft 444 kts 286°
2026-05-07 09:11 25.36983 54.39998 22412 ft 447 kts 286°
2026-05-07 09:11 25.37881 54.36695 22973 ft 450 kts 285°
2026-05-07 09:11 25.38780 54.33371 23507 ft 453 kts 285°
2026-05-07 09:12 25.39682 54.30026 23971 ft 455 kts 285°
2026-05-07 09:12 25.40578 54.26671 24471 ft 455 kts 284°
2026-05-07 09:12 25.41425 54.23294 24968 ft 456 kts 284°
2026-05-07 09:12 25.42250 54.19898 25430 ft 458 kts 283°
2026-05-07 09:13 25.43076 54.16492 25885 ft 459 kts 283°
2026-05-07 09:13 25.43913 54.13078 26335 ft 461 kts 283°
2026-05-07 09:13 25.44759 54.09647 26777 ft 462 kts 283°
2026-05-07 09:13 25.45603 54.06208 27222 ft 464 kts 283°
2026-05-07 09:14 25.46444 54.02759 27649 ft 465 kts 283°
2026-05-07 09:14 25.47286 53.99294 28054 ft 467 kts 283°
2026-05-07 09:14 25.48129 53.95822 28435 ft 468 kts 283°
2026-05-07 09:14 25.48976 53.92334 28804 ft 470 kts 282°
2026-05-07 09:15 25.49824 53.88837 29154 ft 471 kts 282°
2026-05-07 09:15 25.50675 53.85327 29500 ft 473 kts 282°
2026-05-07 09:15 25.51528 53.81804 29810 ft 474 kts 282°
2026-05-07 09:15 25.52381 53.78281 30118 ft 474 kts 282°
2026-05-07 09:16 25.53231 53.74763 30484 ft 472 kts 282°
2026-05-07 09:16 25.54068 53.71261 30879 ft 469 kts 282°
2026-05-07 09:16 25.54895 53.67773 31272 ft 467 kts 282°
2026-05-07 09:16 25.55715 53.64296 31638 ft 466 kts 282°
2026-05-07 09:17 25.56531 53.60833 32007 ft 464 kts 282°
2026-05-07 09:17 25.57345 53.57381 32374 ft 462 kts 282°
2026-05-07 09:17 25.58157 53.53938 32732 ft 461 kts 282°
2026-05-07 09:17 25.58963 53.50517 33107 ft 459 kts 282°
2026-05-07 09:18 25.59767 53.47101 33477 ft 457 kts 282°
2026-05-07 09:18 25.60567 53.43703 33779 ft 457 kts 282°
2026-05-07 09:18 25.62179 53.36852 33838 ft 460 kts 282°
2026-05-07 09:19 25.63791 53.30047 33833 ft 453 kts 282°
2026-05-07 09:19 25.65384 53.23302 33846 ft 452 kts 282°
2026-05-07 09:20 25.66972 53.16550 33845 ft 452 kts 282°
2026-05-07 09:20 25.68569 53.09741 33852 ft 462 kts 282°
2026-05-07 09:21 25.70314 53.02818 33847 ft 471 kts 286°
2026-05-07 09:21 25.72943 52.96155 33850 ft 479 kts 294°
2026-05-07 09:22 25.76083 52.89628 33846 ft 481 kts 294°
2026-05-07 09:22 25.79219 52.83069 33838 ft 481 kts 294°
2026-05-07 09:23 25.82318 52.76512 33844 ft 479 kts 293°
2026-05-07 09:23 25.85398 52.69966 33840 ft 477 kts 293°
2026-05-07 09:24 25.88467 52.63442 33844 ft 476 kts 293°
2026-05-07 09:24 25.91480 52.56921 33842 ft 473 kts 292°
2026-05-07 09:25 25.94365 52.50366 33843 ft 472 kts 291°
2026-05-07 09:25 25.97250 52.43823 33846 ft 471 kts 291°
2026-05-07 09:26 26.00150 52.37289 33840 ft 471 kts 291°
2026-05-07 09:26 26.03056 52.30765 33845 ft 471 kts 291°
2026-05-07 09:27 26.05964 52.24229 33849 ft 471 kts 291°
2026-05-07 09:28 26.10317 52.14416 33848 ft 471 kts 291°
2026-05-07 09:28 26.13215 52.07869 33849 ft 471 kts 291°
2026-05-07 09:29 26.16109 52.01321 33844 ft 471 kts 291°
2026-05-07 09:29 26.19013 51.94825 33850 ft 471 kts 292°
2026-05-07 09:30 26.21939 51.88296 33853 ft 471 kts 291°
2026-05-07 09:30 26.24828 51.81745 33852 ft 470 kts 291°
2026-05-07 09:31 26.27732 51.75217 33851 ft 470 kts 291°
2026-05-07 09:31 26.30632 51.68729 33853 ft 470 kts 291°
2026-05-07 09:32 26.33535 51.62205 33854 ft 469 kts 291°
2026-05-07 09:32 26.36434 51.55681 33853 ft 469 kts 291°
2026-05-07 09:33 26.39000 51.49039 33857 ft 463 kts 284°
2026-05-07 09:33 26.41107 51.42240 33858 ft 464 kts 284°
2026-05-07 09:34 26.43266 51.35440 33856 ft 465 kts 285°
2026-05-07 09:34 26.45491 51.28658 33857 ft 465 kts 285°
2026-05-07 09:35 26.47678 51.21904 33855 ft 466 kts 284°
2026-05-07 09:35 26.49836 51.15091 33854 ft 466 kts 284°
2026-05-07 09:36 26.51997 51.08263 33862 ft 466 kts 284°
2026-05-07 09:36 26.54159 51.01437 33873 ft 466 kts 284°
2026-05-07 09:37 26.56319 50.94612 33863 ft 466 kts 284°
2026-05-07 09:37 26.58461 50.87775 33864 ft 466 kts 284°
2026-05-07 09:38 26.60556 50.80922 33868 ft 466 kts 284°
2026-05-07 09:38 26.62651 50.74066 33864 ft 466 kts 284°
2026-05-07 09:39 26.64744 50.67212 33872 ft 465 kts 283°
2026-05-07 09:39 26.66774 50.60395 33873 ft 465 kts 283°
2026-05-07 09:40 26.68805 50.53539 33869 ft 465 kts 283°
2026-05-07 09:40 26.70828 50.46673 33873 ft 464 kts 282°
2026-05-07 09:41 26.72615 50.39762 33880 ft 463 kts 280°
2026-05-07 09:41 26.73485 50.36296 34180 ft 459 kts 281°
2026-05-07 09:41 26.74355 50.32891 34688 ft 451 kts 281°
2026-05-07 09:41 26.75219 50.29553 35196 ft 444 kts 281°
2026-05-07 09:42 26.76076 50.26260 35640 ft 439 kts 281°
2026-05-07 09:42 26.77005 50.23007 35982 ft 438 kts 283°
2026-05-07 09:42 26.77983 50.19788 36302 ft 435 kts 283°
2026-05-07 09:42 26.78960 50.16615 36880 ft 426 kts 283°
2026-05-07 09:43 26.79909 50.13500 37400 ft 420 kts 283°
2026-05-07 09:43 26.80837 50.10407 37672 ft 419 kts 282°
2026-05-07 09:43 26.81744 50.07349 37789 ft 421 kts 282°
2026-05-07 09:44 26.83601 50.01071 37879 ft 427 kts 282°
2026-05-07 09:44 26.85485 49.94704 37900 ft 434 kts 282°
2026-05-07 09:45 26.87390 49.88262 37894 ft 437 kts 282°
2026-05-07 09:45 26.89298 49.81813 37880 ft 432 kts 282°
2026-05-07 09:46 26.91167 49.75480 37883 ft 425 kts 282°
2026-05-07 09:46 26.93016 49.69185 37887 ft 424 kts 282°
2026-05-07 09:47 26.94846 49.62943 37884 ft 424 kts 282°
2026-05-07 09:47 26.96686 49.56662 37891 ft 424 kts 282°
2026-05-07 09:48 26.98525 49.50372 37880 ft 425 kts 282°
2026-05-07 09:48 27.00369 49.44072 37890 ft 426 kts 283°
2026-05-07 09:49 27.02787 49.37922 37894 ft 436 kts 291°
2026-05-07 09:49 27.05287 49.32998 37897 ft 437 kts 292°
2026-05-07 09:50 27.08297 49.27071 37908 ft 437 kts 291°
2026-05-07 09:50 27.11290 49.21123 37902 ft 437 kts 291°
2026-05-07 09:51 27.14273 49.15168 37899 ft 437 kts 291°
2026-05-07 09:51 27.17232 49.09251 37906 ft 437 kts 291°
2026-05-07 09:52 27.20204 49.03301 37910 ft 437 kts 291°
2026-05-07 09:52 27.23176 48.97350 37907 ft 436 kts 291°
2026-05-07 09:53 27.26153 48.91400 37912 ft 436 kts 291°
2026-05-07 09:53 27.29124 48.85456 37915 ft 435 kts 291°
2026-05-07 09:54 27.32063 48.79564 37917 ft 434 kts 291°
2026-05-07 09:54 27.35014 48.73638 37918 ft 433 kts 291°
2026-05-07 09:55 27.37955 48.67724 37923 ft 432 kts 291°
2026-05-07 09:55 27.40888 48.61817 37925 ft 431 kts 290°
2026-05-07 09:56 27.43809 48.55928 37931 ft 430 kts 290°
2026-05-07 09:56 27.46728 48.50031 37927 ft 430 kts 290°
2026-05-07 09:57 27.49633 48.44157 37929 ft 429 kts 290°
2026-05-07 09:57 27.52521 48.38308 37932 ft 429 kts 290°
2026-05-07 09:58 27.55423 48.32424 37938 ft 429 kts 290°
2026-05-07 09:58 27.58319 48.26542 37937 ft 429 kts 290°
2026-05-07 09:59 27.61205 48.20659 37937 ft 429 kts 290°
2026-05-07 09:59 27.64094 48.14758 37944 ft 429 kts 290°
2026-05-07 10:00 27.66965 48.08888 37947 ft 430 kts 290°
2026-05-07 10:00 27.69853 48.02976 37948 ft 430 kts 290°
2026-05-07 10:01 27.72742 47.97059 37953 ft 431 kts 290°
2026-05-07 10:01 27.75632 47.91132 37955 ft 431 kts 290°
2026-05-07 10:02 27.78521 47.85199 37952 ft 431 kts 290°
2026-05-07 10:02 27.81410 47.79257 37964 ft 431 kts 290°
2026-05-07 10:03 27.84211 47.73279 37966 ft 427 kts 286°
2026-05-07 10:03 27.86264 47.67100 37965 ft 421 kts 281°
2026-05-07 10:04 27.88174 47.60844 37974 ft 421 kts 281°
2026-05-07 10:04 27.90099 47.54583 37983 ft 421 kts 281°
2026-05-07 10:05 27.92029 47.48318 37984 ft 422 kts 281°
2026-05-07 10:05 27.93963 47.42041 37985 ft 422 kts 281°
2026-05-07 10:06 27.95880 47.35808 37990 ft 422 kts 281°
2026-05-07 10:06 27.97808 47.29524 37996 ft 422 kts 281°
2026-05-07 10:07 27.99733 47.23241 37997 ft 423 kts 281°
2026-05-07 10:07 28.01655 47.16954 38000 ft 423 kts 281°
2026-05-07 10:08 28.03573 47.10668 37997 ft 423 kts 281°
2026-05-07 10:08 28.05492 47.04368 38020 ft 423 kts 281°
2026-05-07 10:09 28.07395 46.98109 38022 ft 423 kts 281°
2026-05-07 10:09 28.09309 46.91803 37959 ft 423 kts 281°
2026-05-07 10:10 28.11253 46.85495 37959 ft 425 kts 282°
2026-05-07 10:10 28.13351 46.79226 37955 ft 426 kts 283°
2026-05-07 10:11 28.15473 46.72955 37957 ft 426 kts 283°
2026-05-07 10:11 28.17565 46.66706 37958 ft 425 kts 283°
2026-05-07 10:12 28.19651 46.60429 37959 ft 425 kts 282°
2026-05-07 10:12 28.21732 46.54148 37959 ft 425 kts 282°
2026-05-07 10:13 28.23810 46.47864 37979 ft 426 kts 282°
2026-05-07 10:13 28.25887 46.41571 37979 ft 426 kts 282°
2026-05-07 10:14 28.27968 46.35260 37997 ft 426 kts 282°
2026-05-07 10:14 28.30030 46.28994 38015 ft 426 kts 282°
2026-05-07 10:15 28.32100 46.22692 38024 ft 426 kts 282°
2026-05-07 10:15 28.34169 46.16380 38024 ft 426 kts 282°
2026-05-07 10:16 28.36249 46.10073 38029 ft 427 kts 283°
2026-05-07 10:16 28.38550 46.03833 38026 ft 429 kts 285°
2026-05-07 10:17 28.40919 45.97612 38019 ft 429 kts 285°
2026-05-07 10:17 28.43263 45.91387 37990 ft 428 kts 284°
2026-05-07 10:18 28.45582 45.85159 37982 ft 427 kts 284°
2026-05-07 10:18 28.47871 45.78979 37980 ft 427 kts 284°
2026-05-07 10:19 28.50171 45.72755 37986 ft 426 kts 284°
2026-05-07 10:19 28.52467 45.66535 37982 ft 426 kts 284°
2026-05-07 10:20 28.54765 45.60302 37988 ft 426 kts 284°
2026-05-07 10:20 28.57041 45.54116 37997 ft 427 kts 284°
2026-05-07 10:21 28.59333 45.47876 37995 ft 427 kts 284°
2026-05-07 10:21 28.61624 45.41628 37999 ft 428 kts 284°
2026-05-07 10:22 28.63917 45.35366 38000 ft 428 kts 284°
2026-05-07 10:22 28.66211 45.29090 38003 ft 429 kts 284°
2026-05-07 10:23 28.68502 45.22814 38005 ft 429 kts 284°
2026-05-07 10:23 28.70776 45.16571 38008 ft 429 kts 284°
2026-05-07 10:24 28.73061 45.10289 38007 ft 429 kts 284°
2026-05-07 10:24 28.75341 45.04009 38007 ft 429 kts 284°
2026-05-07 10:25 28.77618 44.97726 38010 ft 429 kts 284°
2026-05-07 10:25 28.79892 44.91440 38006 ft 429 kts 284°
2026-05-07 10:26 28.82166 44.85143 38002 ft 429 kts 284°
2026-05-07 10:26 28.84429 44.78838 37998 ft 428 kts 282°
2026-05-07 10:27 28.85989 44.72432 38005 ft 419 kts 274°
2026-05-07 10:27 28.86748 44.65897 38009 ft 413 kts 269°
2026-05-07 10:28 28.87252 44.59349 37994 ft 414 kts 269°
2026-05-07 10:28 28.87754 44.52795 37998 ft 414 kts 269°
2026-05-07 10:29 28.88268 44.46241 37992 ft 415 kts 269°
2026-05-07 10:29 28.88786 44.39682 37999 ft 415 kts 269°
2026-05-07 10:30 28.89557 44.29873 37995 ft 416 kts 269°
2026-05-07 10:30 28.90069 44.23300 37997 ft 416 kts 269°
2026-05-07 10:31 28.90578 44.16725 37995 ft 416 kts 269°
2026-05-07 10:31 28.91084 44.10146 37999 ft 416 kts 269°
2026-05-07 10:32 28.91588 44.03550 37994 ft 416 kts 268°
2026-05-07 10:32 28.92087 43.96972 38002 ft 416 kts 268°
2026-05-07 10:33 28.92583 43.90396 37996 ft 416 kts 268°
2026-05-07 10:33 28.93073 43.83866 37994 ft 415 kts 268°
2026-05-07 10:34 28.93563 43.77282 38005 ft 415 kts 268°
2026-05-07 10:34 28.94048 43.70714 38006 ft 415 kts 268°
2026-05-07 10:35 28.94531 43.64141 38003 ft 415 kts 268°
2026-05-07 10:35 28.95011 43.57572 38000 ft 415 kts 268°
2026-05-07 10:36 28.95485 43.51033 38003 ft 415 kts 268°
2026-05-07 10:36 28.95953 43.44469 38007 ft 415 kts 268°
2026-05-07 10:37 28.96416 43.37898 38011 ft 415 kts 268°
2026-05-07 10:37 28.96877 43.31336 38014 ft 414 kts 268°
2026-05-07 10:38 28.97332 43.24813 38018 ft 414 kts 268°
2026-05-07 10:38 28.97713 43.19322 38020 ft 414 kts 268°
2026-05-07 10:39 28.98162 43.12792 38023 ft 414 kts 268°
2026-05-07 10:39 28.98610 43.06234 38024 ft 414 kts 268°
2026-05-07 10:40 28.99056 42.99682 38039 ft 414 kts 268°
2026-05-07 10:40 28.99497 42.93123 38043 ft 414 kts 268°
2026-05-07 10:41 28.99936 42.86566 38042 ft 414 kts 267°
2026-05-07 10:41 29.00371 42.80009 38046 ft 414 kts 267°
2026-05-07 10:42 29.00804 42.73451 38046 ft 414 kts 267°
2026-05-07 10:42 29.01233 42.66890 38045 ft 414 kts 267°
2026-05-07 10:43 29.01657 42.60366 38048 ft 414 kts 267°
2026-05-07 10:43 29.02079 42.53808 38048 ft 414 kts 267°
2026-05-07 10:44 29.02499 42.47243 38044 ft 414 kts 267°
2026-05-07 10:44 29.02916 42.40677 38049 ft 414 kts 267°
2026-05-07 10:45 29.03329 42.34111 38042 ft 414 kts 267°
2026-05-07 10:45 29.03741 42.27536 38051 ft 414 kts 267°
2026-05-07 10:46 29.04148 42.20968 38051 ft 415 kts 267°
2026-05-07 10:46 29.04554 42.14385 38048 ft 415 kts 267°
2026-05-07 10:47 29.04955 42.07835 38056 ft 416 kts 266°
2026-05-07 10:47 29.05357 42.01238 38060 ft 416 kts 266°
2026-05-07 10:48 29.05757 41.94629 38065 ft 416 kts 266°
2026-05-07 10:48 29.06155 41.88013 38047 ft 417 kts 266°
2026-05-07 10:49 29.06552 41.81403 38058 ft 417 kts 266°
2026-05-07 10:49 29.06945 41.74822 38051 ft 417 kts 266°
2026-05-07 10:50 29.07336 41.68191 38052 ft 417 kts 266°
2026-05-07 10:50 29.07724 41.61570 38052 ft 417 kts 266°
2026-05-07 10:51 29.08109 41.54950 38066 ft 417 kts 266°
2026-05-07 10:51 29.08490 41.48325 38058 ft 418 kts 266°
2026-05-07 10:52 29.08868 41.41697 38061 ft 418 kts 266°
2026-05-07 10:52 29.09236 41.35114 38062 ft 417 kts 266°
2026-05-07 10:53 29.09602 41.28482 38060 ft 417 kts 266°
2026-05-07 10:53 29.09963 41.21860 38064 ft 417 kts 266°
2026-05-07 10:54 29.10321 41.15234 38055 ft 418 kts 266°
2026-05-07 10:54 29.10678 41.08604 38064 ft 418 kts 266°
2026-05-07 10:55 29.11031 41.01973 38061 ft 418 kts 266°
2026-05-07 10:55 29.11381 40.95344 38062 ft 418 kts 266°
2026-05-07 10:56 29.11728 40.88712 38066 ft 417 kts 266°
2026-05-07 10:56 29.12071 40.82075 38064 ft 418 kts 266°
2026-05-07 10:57 29.12409 40.75489 38065 ft 417 kts 266°
2026-05-07 10:57 29.12745 40.68858 38063 ft 418 kts 266°
2026-05-07 10:58 29.13080 40.62215 38068 ft 418 kts 266°
2026-05-07 10:58 29.13263 40.55587 38062 ft 414 kts 261°
2026-05-07 10:59 29.13039 40.49010 38067 ft 414 kts 261°
2026-05-07 10:59 29.12806 40.42407 38058 ft 415 kts 261°
2026-05-07 11:00 29.12581 40.35813 38052 ft 415 kts 262°
2026-05-07 11:00 29.12360 40.29258 38065 ft 415 kts 262°
2026-05-07 11:01 29.12135 40.22643 38055 ft 416 kts 262°
2026-05-07 11:01 29.11906 40.16019 38048 ft 417 kts 262°
2026-05-07 11:02 29.11672 40.09393 38042 ft 417 kts 262°
2026-05-07 11:02 29.11437 40.02757 38052 ft 417 kts 261°
2026-05-07 11:03 29.11199 39.96130 38029 ft 417 kts 262°
2026-05-07 11:03 29.10963 39.89506 38026 ft 417 kts 262°
2026-05-07 11:04 29.10952 39.82900 38045 ft 419 kts 264°
2026-05-07 11:04 29.11026 39.76237 38036 ft 419 kts 264°
2026-05-07 11:05 29.11076 39.69571 38054 ft 419 kts 264°
2026-05-07 11:05 29.11100 39.62891 38040 ft 420 kts 264°
2026-05-07 11:06 29.11115 39.56198 38033 ft 421 kts 264°
2026-05-07 11:06 29.11127 39.49489 38033 ft 422 kts 264°
2026-05-07 11:07 29.11136 39.42808 38029 ft 423 kts 264°
2026-05-07 11:07 29.11141 39.36074 38031 ft 424 kts 264°
2026-05-07 11:08 29.11144 39.29321 38027 ft 424 kts 264°
2026-05-07 11:08 29.11143 39.22568 38021 ft 424 kts 264°
2026-05-07 11:09 29.11139 39.15821 38023 ft 425 kts 264°
2026-05-07 11:09 29.11131 39.09060 38015 ft 425 kts 264°
2026-05-07 11:10 29.11120 39.02299 38020 ft 425 kts 264°
2026-05-07 11:10 29.11106 38.95577 38020 ft 425 kts 264°
2026-05-07 11:11 29.11086 38.88804 38014 ft 426 kts 264°
2026-05-07 11:11 29.11058 38.82020 38015 ft 427 kts 264°
2026-05-07 11:12 29.11027 38.75234 38016 ft 427 kts 264°
2026-05-07 11:12 29.10993 38.68461 38021 ft 428 kts 264°
2026-05-07 11:13 29.10956 38.61639 38009 ft 429 kts 264°
2026-05-07 11:13 29.10916 38.54809 38008 ft 430 kts 264°
2026-05-07 11:14 29.10872 38.47971 38014 ft 430 kts 264°
2026-05-07 11:14 29.10825 38.41119 38020 ft 431 kts 264°
2026-05-07 11:15 29.10772 38.34244 38019 ft 432 kts 264°
2026-05-07 11:15 29.10710 38.27371 38008 ft 433 kts 264°
2026-05-07 11:16 29.10645 38.20471 38029 ft 434 kts 264°
2026-05-07 11:16 29.10577 38.13608 38022 ft 435 kts 264°
2026-05-07 11:17 29.10505 38.06694 38027 ft 435 kts 264°
2026-05-07 11:17 29.10430 37.99762 38016 ft 436 kts 264°
2026-05-07 11:18 29.10351 37.92827 38020 ft 436 kts 264°
2026-05-07 11:18 29.10269 37.85882 38016 ft 437 kts 264°
2026-05-07 11:19 29.10183 37.78939 38019 ft 437 kts 264°
2026-05-07 11:19 29.10093 37.71978 38017 ft 438 kts 264°
2026-05-07 11:20 29.10000 37.65046 38020 ft 438 kts 264°
2026-05-07 11:20 29.09903 37.58066 38016 ft 439 kts 264°
2026-05-07 11:21 29.09803 37.51078 38017 ft 440 kts 264°
2026-05-07 11:21 29.09739 37.44079 38024 ft 441 kts 265°
2026-05-07 11:22 29.09701 37.37055 38023 ft 441 kts 265°
2026-05-07 11:22 29.09658 37.30069 38021 ft 442 kts 265°
2026-05-07 11:23 29.09605 37.22994 38021 ft 442 kts 265°
2026-05-07 11:23 29.09547 37.15995 38015 ft 443 kts 265°
2026-05-07 11:24 29.09485 37.08950 38011 ft 443 kts 265°
2026-05-07 11:24 29.09420 37.01897 38007 ft 444 kts 265°
2026-05-07 11:25 29.09351 36.94841 38004 ft 444 kts 265°
2026-05-07 11:25 29.09277 36.87783 38004 ft 444 kts 265°
2026-05-07 11:26 29.09214 36.81904 37992 ft 445 kts 265°
2026-05-07 11:26 29.09134 36.74833 37987 ft 445 kts 265°
2026-05-07 11:27 29.09050 36.67748 37983 ft 445 kts 265°
2026-05-07 11:27 29.08963 36.60667 37982 ft 446 kts 265°
2026-05-07 11:28 29.08873 36.53616 37984 ft 446 kts 265°
2026-05-07 11:28 29.08774 36.46521 37978 ft 446 kts 265°
2026-05-07 11:29 29.08593 36.39417 37981 ft 447 kts 265°
2026-05-07 11:29 29.08383 36.32319 37976 ft 447 kts 265°
2026-05-07 11:30 29.08176 36.25213 37977 ft 447 kts 265°
2026-05-07 11:30 29.07973 36.18105 37982 ft 447 kts 265°
2026-05-07 11:31 29.07769 36.11029 37985 ft 448 kts 265°
2026-05-07 11:31 29.07560 36.03911 37989 ft 448 kts 265°
2026-05-07 11:32 29.07239 35.93216 37989 ft 448 kts 265°
2026-05-07 11:33 29.07020 35.86090 37997 ft 449 kts 265°
2026-05-07 11:33 29.06798 35.78962 38001 ft 449 kts 265°
2026-05-07 11:34 29.06571 35.71832 38000 ft 449 kts 265°
2026-05-07 11:34 29.06343 35.64740 37998 ft 449 kts 265°
2026-05-07 11:35 29.06108 35.57605 37995 ft 449 kts 265°
2026-05-07 11:35 29.05869 35.50461 37994 ft 450 kts 265°
2026-05-07 11:36 29.05627 35.43315 37995 ft 451 kts 265°
2026-05-07 11:36 29.05381 35.36136 37988 ft 451 kts 265°
2026-05-07 11:37 29.05130 35.28968 37992 ft 452 kts 265°
2026-05-07 11:37 29.04876 35.21847 37979 ft 452 kts 265°
2026-05-07 11:38 29.04619 35.14671 37972 ft 452 kts 265°
2026-05-07 11:38 29.04357 35.07488 37972 ft 452 kts 265°
2026-05-07 11:39 29.04090 35.00299 37971 ft 452 kts 265°
2026-05-07 11:39 29.03820 34.93098 37972 ft 453 kts 265°
2026-05-07 11:40 29.03546 34.85899 37972 ft 454 kts 265°
2026-05-07 11:40 29.03376 34.78681 37966 ft 454 kts 267°
2026-05-07 11:41 29.03597 34.71494 37962 ft 456 kts 282°
2026-05-07 11:41 29.04723 34.68146 37985 ft 461 kts 296°
2026-05-07 11:41 29.06508 34.65074 37981 ft 467 kts 306°
2026-05-07 11:41 29.08870 34.62505 37959 ft 472 kts 321°
2026-05-07 11:42 29.11609 34.60408 38003 ft 475 kts 323°
2026-05-07 11:42 29.17216 34.56343 38005 ft 479 kts 323°
2026-05-07 11:43 29.22843 34.52193 38000 ft 482 kts 323°
2026-05-07 11:43 29.28451 34.47952 38016 ft 484 kts 323°
2026-05-07 11:44 29.34060 34.43673 38023 ft 484 kts 323°
2026-05-07 11:44 29.39672 34.39388 38021 ft 483 kts 323°
2026-05-07 11:45 29.45253 34.35127 38027 ft 481 kts 323°
2026-05-07 11:45 29.50814 34.30875 38035 ft 479 kts 323°
2026-05-07 11:46 29.56300 34.26675 38039 ft 476 kts 323°
2026-05-07 11:46 29.61859 34.22534 38039 ft 476 kts 327°
2026-05-07 11:47 29.67700 34.18953 38049 ft 475 kts 329°
2026-05-07 11:47 29.73569 34.15448 38052 ft 475 kts 329°
2026-05-07 11:48 29.79419 34.11921 38051 ft 474 kts 329°
2026-05-07 11:48 29.85263 34.08364 38052 ft 474 kts 329°
2026-05-07 11:49 29.91092 34.04804 38058 ft 474 kts 329°
2026-05-07 11:49 29.96927 34.01234 38068 ft 474 kts 329°
2026-05-07 11:50 30.02749 33.97668 38052 ft 474 kts 329°
2026-05-07 11:50 30.08537 33.94120 38057 ft 473 kts 329°
2026-05-07 11:51 30.14359 33.90546 38085 ft 473 kts 329°
2026-05-07 11:51 30.20172 33.86974 38070 ft 472 kts 329°
2026-05-07 11:52 30.25933 33.83428 38075 ft 471 kts 329°
2026-05-07 11:52 30.31722 33.79860 38072 ft 471 kts 329°
2026-05-07 11:53 30.37502 33.76293 38082 ft 470 kts 329°
2026-05-07 11:53 30.43274 33.72726 38087 ft 470 kts 329°
2026-05-07 11:54 30.49039 33.69159 38088 ft 469 kts 329°
2026-05-07 11:54 30.54791 33.65594 38098 ft 469 kts 329°
2026-05-07 11:55 30.60554 33.62018 38098 ft 469 kts 329°
2026-05-07 11:55 30.66267 33.58468 38108 ft 468 kts 329°
2026-05-07 11:56 30.72011 33.54894 38116 ft 468 kts 329°
2026-05-07 11:56 30.77746 33.51321 38117 ft 468 kts 329°
2026-05-07 11:57 30.83486 33.47740 38111 ft 467 kts 329°
2026-05-07 11:57 30.89216 33.44160 38120 ft 466 kts 329°
2026-05-07 11:58 30.94939 33.40580 38123 ft 466 kts 329°
2026-05-07 11:58 31.00610 33.37027 38132 ft 465 kts 329°
2026-05-07 11:59 31.06315 33.33448 38124 ft 465 kts 329°
2026-05-07 11:59 31.12009 33.29871 38126 ft 465 kts 329°
2026-05-07 12:00 31.17698 33.26292 38128 ft 464 kts 329°
2026-05-07 12:00 31.23379 33.22713 38131 ft 464 kts 329°
2026-05-07 12:01 31.29055 33.19132 38131 ft 463 kts 329°
2026-05-07 12:01 31.34838 33.15799 38120 ft 465 kts 338°
2026-05-07 12:02 31.41141 33.13999 38123 ft 466 kts 347°
2026-05-07 12:02 31.44255 33.13039 38132 ft 461 kts 336°
2026-05-07 12:02 31.47147 33.11464 38134 ft 458 kts 328°
2026-05-07 12:03 31.52368 33.07227 38129 ft 456 kts 321°
2026-05-07 12:03 31.57393 33.02748 38119 ft 457 kts 321°
2026-05-07 12:04 31.62484 32.98253 38129 ft 458 kts 321°
2026-05-07 12:04 31.67585 32.93762 38131 ft 459 kts 321°
2026-05-07 12:05 31.72697 32.89258 38126 ft 460 kts 321°
2026-05-07 12:05 31.77813 32.84743 38121 ft 460 kts 321°
2026-05-07 12:06 31.82928 32.80221 38122 ft 460 kts 321°
2026-05-07 12:06 31.88042 32.75693 38123 ft 460 kts 321°
2026-05-07 12:07 31.93143 32.71171 38122 ft 459 kts 321°
2026-05-07 12:07 31.98246 32.66640 38128 ft 459 kts 321°
2026-05-07 12:08 32.03341 32.62110 38123 ft 458 kts 321°
2026-05-07 12:08 32.08427 32.57581 38125 ft 458 kts 321°
2026-05-07 12:09 32.13511 32.53048 38126 ft 458 kts 321°
2026-05-07 12:09 32.18589 32.48514 38130 ft 458 kts 321°
2026-05-07 12:10 32.23667 32.43973 38127 ft 458 kts 321°
2026-05-07 12:10 32.28742 32.39428 38140 ft 458 kts 321°
2026-05-07 12:11 32.33818 32.34876 38122 ft 458 kts 321°
2026-05-07 12:11 32.38887 32.30323 38131 ft 458 kts 321°
2026-05-07 12:12 32.43958 32.25762 38146 ft 457 kts 321°
2026-05-07 12:12 32.49021 32.21201 38146 ft 457 kts 321°
2026-05-07 12:13 32.54048 32.16666 38136 ft 457 kts 321°
2026-05-07 12:13 32.59097 32.12104 38134 ft 456 kts 321°
2026-05-07 12:14 32.64095 32.07475 38137 ft 455 kts 317°
2026-05-07 12:14 32.67985 32.03212 38136 ft 454 kts 316°
2026-05-07 12:15 32.72577 31.98061 38145 ft 453 kts 316°
2026-05-07 12:15 32.77161 31.92926 38140 ft 453 kts 316°
2026-05-07 12:16 32.81719 31.87839 38143 ft 452 kts 316°
2026-05-07 12:16 32.86304 31.82726 38143 ft 451 kts 316°
2026-05-07 12:17 32.90877 31.77619 38146 ft 451 kts 316°
2026-05-07 12:17 32.95447 31.72509 38145 ft 450 kts 316°
2026-05-07 12:18 33.00005 31.67402 38145 ft 449 kts 316°
2026-05-07 12:18 33.04555 31.62297 38145 ft 449 kts 316°
2026-05-07 12:19 33.09095 31.57196 38150 ft 448 kts 316°
2026-05-07 12:19 33.13624 31.52100 38145 ft 448 kts 316°
2026-05-07 12:20 33.18151 31.46998 38144 ft 447 kts 316°
2026-05-07 12:20 33.22668 31.41900 38148 ft 447 kts 316°
2026-05-07 12:21 33.27180 31.36799 38149 ft 446 kts 316°
2026-05-07 12:21 33.31681 31.31704 38149 ft 445 kts 316°
2026-05-07 12:22 33.36174 31.26610 38151 ft 445 kts 316°
2026-05-07 12:22 33.40658 31.21520 38148 ft 444 kts 316°
2026-05-07 12:23 33.45131 31.16433 38149 ft 443 kts 316°
2026-05-07 12:23 33.49604 31.11339 38149 ft 443 kts 316°
2026-05-07 12:24 33.54035 31.06286 38149 ft 442 kts 316°
2026-05-07 12:24 33.58485 31.01202 38152 ft 442 kts 316°
2026-05-07 12:25 33.62932 30.96115 38149 ft 441 kts 316°
2026-05-07 12:25 33.67371 30.91030 38154 ft 441 kts 316°
2026-05-07 12:26 33.71798 30.85950 38155 ft 440 kts 316°
2026-05-07 12:26 33.76222 30.80867 38153 ft 440 kts 316°
2026-05-07 12:27 33.80636 30.75787 38151 ft 439 kts 316°
2026-05-07 12:27 33.85043 30.70708 38151 ft 438 kts 316°
2026-05-07 12:28 33.89442 30.65630 38155 ft 438 kts 316°
2026-05-07 12:28 33.93831 30.60556 38151 ft 437 kts 316°
2026-05-07 12:29 33.98216 30.55478 38154 ft 437 kts 316°
2026-05-07 12:29 34.02588 30.50409 38150 ft 436 kts 316°
2026-05-07 12:30 34.06951 30.45343 38149 ft 435 kts 316°
2026-05-07 12:30 34.11303 30.40281 38155 ft 434 kts 316°
2026-05-07 12:31 34.15645 30.35224 38156 ft 433 kts 316°
2026-05-07 12:31 34.19974 30.30173 38154 ft 432 kts 316°
2026-05-07 12:32 34.24294 30.25127 38157 ft 431 kts 317°
2026-05-07 12:32 34.28596 30.20093 38158 ft 430 kts 317°
2026-05-07 12:33 34.34995 30.12590 38159 ft 428 kts 317°
2026-05-07 12:33 34.39397 30.07765 38159 ft 426 kts 321°
2026-05-07 12:34 34.43995 30.03235 38160 ft 425 kts 321°
2026-05-07 12:34 34.48590 29.98729 38155 ft 425 kts 321°
2026-05-07 12:35 34.53166 29.94195 38155 ft 424 kts 321°
2026-05-07 12:35 34.57724 29.89650 38159 ft 424 kts 321°
2026-05-07 12:36 34.62271 29.85101 38162 ft 423 kts 321°
2026-05-07 12:36 34.66809 29.80554 38157 ft 423 kts 321°
2026-05-07 12:37 34.71340 29.76007 38163 ft 422 kts 321°
2026-05-07 12:37 34.75865 29.71462 38157 ft 422 kts 321°
2026-05-07 12:38 34.80380 29.66919 38157 ft 421 kts 321°
2026-05-07 12:38 34.84886 29.62378 38162 ft 420 kts 321°
2026-05-07 12:39 34.89384 29.57839 38160 ft 420 kts 320°
2026-05-07 12:39 34.93878 29.53298 38159 ft 419 kts 320°
2026-05-07 12:40 34.98364 29.48758 38156 ft 419 kts 320°
2026-05-07 12:40 35.02845 29.44216 38163 ft 419 kts 320°
2026-05-07 12:41 35.07291 29.39703 38161 ft 418 kts 320°
2026-05-07 12:41 35.11761 29.35159 38158 ft 418 kts 320°
2026-05-07 12:42 35.16225 29.30614 38160 ft 417 kts 320°
2026-05-07 12:42 35.20684 29.26068 38158 ft 417 kts 320°
2026-05-07 12:43 35.25138 29.21520 38158 ft 417 kts 320°
2026-05-07 12:43 35.29587 29.16971 38154 ft 417 kts 320°
2026-05-07 12:44 35.34034 29.12416 38154 ft 417 kts 320°
2026-05-07 12:44 35.38479 29.07858 38155 ft 417 kts 319°
2026-05-07 12:45 35.42918 29.03298 38155 ft 416 kts 319°
2026-05-07 12:45 35.47353 28.98736 38164 ft 416 kts 319°
2026-05-07 12:46 35.51791 28.94164 38168 ft 416 kts 319°
2026-05-07 12:46 35.56220 28.89594 38155 ft 416 kts 319°
2026-05-07 12:47 35.60620 28.85047 38154 ft 416 kts 319°
2026-05-07 12:47 35.65047 28.80467 38156 ft 416 kts 319°
2026-05-07 12:48 35.69474 28.75878 38154 ft 416 kts 319°
2026-05-07 12:48 35.73902 28.71282 38155 ft 416 kts 319°
2026-05-07 12:49 35.78328 28.66681 38153 ft 417 kts 319°
2026-05-07 12:49 35.82759 28.62068 38153 ft 417 kts 319°
2026-05-07 12:50 35.87189 28.57449 38151 ft 417 kts 319°
2026-05-07 12:50 35.91625 28.52817 38153 ft 418 kts 319°
2026-05-07 12:51 35.96062 28.48176 38151 ft 418 kts 319°
2026-05-07 12:51 36.00501 28.43526 38148 ft 419 kts 319°
2026-05-07 12:52 36.04946 28.38863 38146 ft 419 kts 319°
2026-05-07 12:52 36.09394 28.34189 38142 ft 420 kts 319°
2026-05-07 12:53 36.13847 28.29503 38136 ft 420 kts 319°
2026-05-07 12:53 36.18302 28.24807 38131 ft 421 kts 319°
2026-05-07 12:54 36.22761 28.20101 38131 ft 421 kts 318°
2026-05-07 12:54 36.27222 28.15383 38132 ft 422 kts 318°
2026-05-07 12:55 36.31691 28.10651 38125 ft 423 kts 319°
2026-05-07 12:55 36.36133 28.05865 38129 ft 423 kts 317°
2026-05-07 12:56 36.40417 28.00910 38123 ft 424 kts 316°
2026-05-07 12:56 36.44712 27.95882 38130 ft 424 kts 316°
2026-05-07 12:57 36.49021 27.90866 38127 ft 425 kts 316°
2026-05-07 12:57 36.53339 27.85855 38131 ft 425 kts 316°
2026-05-07 12:58 36.57666 27.80834 38125 ft 426 kts 316°
2026-05-07 12:58 36.61997 27.75798 38116 ft 427 kts 316°
2026-05-07 12:59 36.66328 27.70757 38121 ft 426 kts 316°
2026-05-07 12:59 36.70658 27.65706 38122 ft 427 kts 316°
2026-05-07 13:00 36.74990 27.60644 38123 ft 427 kts 316°
2026-05-07 13:00 36.79327 27.55570 38125 ft 428 kts 316°
2026-05-07 13:01 36.83662 27.50488 38138 ft 428 kts 316°
2026-05-07 13:01 36.88000 27.45396 38139 ft 428 kts 316°
2026-05-07 13:02 36.92332 27.40302 38144 ft 428 kts 316°
2026-05-07 13:02 36.95934 27.36059 38142 ft 428 kts 315°
2026-05-07 13:03 37.00268 27.30947 38140 ft 428 kts 315°
2026-05-07 13:03 37.04599 27.25830 38146 ft 428 kts 315°
2026-05-07 13:04 37.08933 27.20702 38140 ft 429 kts 315°
2026-05-07 13:04 37.13266 27.15565 38140 ft 429 kts 315°
2026-05-07 13:05 37.17598 27.10422 38138 ft 429 kts 315°
2026-05-07 13:05 37.21933 27.05265 38140 ft 430 kts 315°
2026-05-07 13:06 37.26271 27.00097 38141 ft 430 kts 315°
2026-05-07 13:06 37.30608 26.94921 38142 ft 430 kts 315°
2026-05-07 13:07 37.34942 26.89740 38143 ft 430 kts 315°
2026-05-07 13:07 37.39282 26.84545 38138 ft 431 kts 315°
2026-05-07 13:08 37.43776 26.79552 38142 ft 431 kts 318°
2026-05-07 13:08 37.48358 26.74667 38140 ft 432 kts 318°
2026-05-07 13:09 37.52933 26.69762 38139 ft 432 kts 317°
2026-05-07 13:09 37.57500 26.64830 38141 ft 432 kts 317°
2026-05-07 13:10 37.62060 26.59890 38138 ft 432 kts 317°
2026-05-07 13:10 37.66621 26.54943 38143 ft 432 kts 317°
2026-05-07 13:11 37.71147 26.50022 38144 ft 432 kts 317°
2026-05-07 13:11 37.75701 26.45046 38145 ft 432 kts 317°
2026-05-07 13:12 37.80249 26.40066 38142 ft 433 kts 317°
2026-05-07 13:12 37.84794 26.35085 38146 ft 433 kts 317°
2026-05-07 13:13 37.89346 26.30095 38144 ft 433 kts 317°
2026-05-07 13:13 37.93903 26.25106 38143 ft 433 kts 317°
2026-05-07 13:14 37.98457 26.20111 38142 ft 433 kts 317°
2026-05-07 13:14 38.03012 26.15103 38139 ft 433 kts 317°
2026-05-07 13:15 38.07568 26.10087 38135 ft 434 kts 317°
2026-05-07 13:15 38.12124 26.05065 38136 ft 434 kts 317°
2026-05-07 13:16 38.16682 26.00033 38142 ft 434 kts 317°
2026-05-07 13:16 38.21240 25.94990 38140 ft 435 kts 316°
2026-05-07 13:17 38.25826 25.89967 38132 ft 436 kts 319°
2026-05-07 13:17 38.30633 25.85239 38134 ft 437 kts 320°
2026-05-07 13:18 38.35482 25.80566 38133 ft 437 kts 320°
2026-05-07 13:18 38.40325 25.75877 38143 ft 438 kts 320°
2026-05-07 13:19 38.45164 25.71160 38130 ft 438 kts 320°
2026-05-07 13:19 38.50000 25.66429 38128 ft 438 kts 320°
2026-05-07 13:20 38.54839 25.61685 38129 ft 439 kts 320°
2026-05-07 13:20 38.59678 25.56933 38141 ft 439 kts 320°
2026-05-07 13:21 38.64496 25.52194 38132 ft 440 kts 320°
2026-05-07 13:21 38.69343 25.47417 38131 ft 440 kts 319°
2026-05-07 13:22 38.74217 25.42605 38146 ft 447 kts 319°
2026-05-07 13:22 38.79185 25.37689 38138 ft 455 kts 319°
2026-05-07 13:23 38.84233 25.32688 38132 ft 462 kts 319°
2026-05-07 13:23 38.89344 25.27616 38131 ft 466 kts 319°
2026-05-07 13:24 38.94493 25.22498 38124 ft 469 kts 319°
2026-05-07 13:24 38.99641 25.17372 38114 ft 466 kts 319°
2026-05-07 13:25 39.04718 25.12308 38117 ft 460 kts 319°
2026-05-07 13:25 39.09765 25.07260 38124 ft 459 kts 319°
2026-05-07 13:26 39.14811 25.02203 38125 ft 459 kts 319°
2026-05-07 13:26 39.19853 24.97141 38124 ft 460 kts 319°
2026-05-07 13:27 39.24901 24.92065 38121 ft 461 kts 319°
2026-05-07 13:27 39.29927 24.87001 38125 ft 462 kts 319°
2026-05-07 13:28 39.35025 24.81856 38126 ft 463 kts 319°
2026-05-07 13:28 39.40065 24.76759 38122 ft 464 kts 319°
2026-05-07 13:29 39.45146 24.71611 38126 ft 464 kts 319°
2026-05-07 13:29 39.50232 24.66448 38128 ft 465 kts 319°
2026-05-07 13:30 39.55327 24.61266 38125 ft 465 kts 319°
2026-05-07 13:30 39.60417 24.56079 38128 ft 466 kts 319°
2026-05-07 13:31 39.65513 24.50876 38127 ft 466 kts 319°
2026-05-07 13:31 39.70611 24.45661 38137 ft 467 kts 318°
2026-05-07 13:32 39.75712 24.40437 38106 ft 467 kts 319°
2026-05-07 13:32 39.80849 24.35236 38072 ft 468 kts 319°
2026-05-07 13:33 39.86053 24.30124 38065 ft 469 kts 320°
2026-05-07 13:33 39.91343 24.25157 38070 ft 469 kts 321°
2026-05-07 13:34 39.99497 24.18040 38021 ft 471 kts 324°
2026-05-07 13:35 40.05092 24.13563 37996 ft 473 kts 326°
2026-05-07 13:35 40.10830 24.09322 37983 ft 474 kts 328°
2026-05-07 13:36 40.16694 24.05343 37976 ft 476 kts 330°
2026-05-07 13:36 40.22648 24.01662 37964 ft 477 kts 332°
2026-05-07 13:37 40.28808 23.98216 37947 ft 479 kts 334°
2026-05-07 13:37 40.35002 23.95102 37958 ft 481 kts 336°
2026-05-07 13:38 40.41342 23.92258 37986 ft 482 kts 338°
2026-05-07 13:38 40.47770 23.89707 37987 ft 484 kts 340°
2026-05-07 13:39 40.54293 23.87445 38004 ft 486 kts 342°
2026-05-07 13:39 40.60897 23.85486 38033 ft 487 kts 344°
2026-05-07 13:40 40.67570 23.83843 38061 ft 489 kts 346°
2026-05-07 13:40 40.74306 23.82508 38100 ft 490 kts 348°
2026-05-07 13:41 40.81083 23.81480 38058 ft 488 kts 350°
2026-05-07 13:41 40.84458 23.81072 37749 ft 487 kts 351°
2026-05-07 13:41 40.87732 23.80333 37834 ft 467 kts 336°
2026-05-07 13:41 40.90543 23.78348 37976 ft 456 kts 316°
2026-05-07 13:42 40.92639 23.75276 38072 ft 448 kts 303°
2026-05-07 13:42 40.96438 23.68636 38137 ft 459 kts 307°
2026-05-07 13:43 41.00776 23.62304 38137 ft 468 kts 311°
2026-05-07 13:43 41.05363 23.56271 38119 ft 461 kts 313°
2026-05-07 13:44 41.09951 23.50393 38134 ft 458 kts 313°
2026-05-07 13:44 41.14525 23.44502 38131 ft 459 kts 313°
2026-05-07 13:45 41.19097 23.38566 38134 ft 460 kts 312°
2026-05-07 13:45 41.23683 23.32584 38140 ft 464 kts 312°
2026-05-07 13:46 41.28290 23.26562 38123 ft 465 kts 312°
2026-05-07 13:46 41.32904 23.20517 38125 ft 465 kts 312°
2026-05-07 13:47 41.37504 23.14481 38137 ft 465 kts 312°
2026-05-07 13:47 41.42111 23.08425 38129 ft 465 kts 312°
2026-05-07 13:48 41.46717 23.02358 38136 ft 465 kts 312°
2026-05-07 13:48 41.51308 22.96294 38140 ft 465 kts 312°
2026-05-07 13:49 41.55901 22.90215 38134 ft 465 kts 312°
2026-05-07 13:49 41.59712 22.85162 38111 ft 465 kts 311°
2026-05-07 13:50 41.65040 22.78083 38120 ft 465 kts 311°
2026-05-07 13:50 41.69626 22.71974 38114 ft 465 kts 311°
2026-05-07 13:51 41.73468 22.66847 38118 ft 465 kts 311°
2026-05-07 13:51 41.78790 22.59730 38117 ft 465 kts 311°
2026-05-07 13:52 41.82627 22.54588 38123 ft 465 kts 311°
2026-05-07 13:52 41.87201 22.48447 38130 ft 466 kts 311°
2026-05-07 13:53 41.91749 22.42326 38125 ft 466 kts 311°
2026-05-07 13:53 41.96326 22.36153 38127 ft 467 kts 311°
2026-05-07 13:54 42.00908 22.29960 38128 ft 467 kts 311°
2026-05-07 13:54 42.05492 22.23753 38121 ft 468 kts 311°
2026-05-07 13:55 42.10081 22.17524 38129 ft 468 kts 311°
2026-05-07 13:55 42.14667 22.11285 38128 ft 469 kts 311°
2026-05-07 13:56 42.19270 22.05010 38120 ft 470 kts 311°
2026-05-07 13:56 42.23869 21.98725 38123 ft 471 kts 311°
2026-05-07 13:57 42.28472 21.92424 38118 ft 471 kts 311°
2026-05-07 13:57 42.33075 21.86105 38113 ft 472 kts 310°
2026-05-07 13:58 42.37680 21.79772 38113 ft 472 kts 310°
2026-05-07 13:58 42.42274 21.73440 38120 ft 471 kts 310°
2026-05-07 13:59 42.46864 21.67100 38118 ft 471 kts 310°
2026-05-07 13:59 42.51440 21.60763 38112 ft 471 kts 310°
2026-05-07 14:00 42.56015 21.54413 38109 ft 470 kts 310°
2026-05-07 14:00 42.60580 21.48065 38125 ft 470 kts 310°
2026-05-07 14:01 42.65145 21.41701 38114 ft 470 kts 310°
2026-05-07 14:01 42.69705 21.35330 38097 ft 470 kts 310°
2026-05-07 14:02 42.74224 21.29005 38111 ft 469 kts 310°
2026-05-07 14:02 42.78777 21.22615 38106 ft 470 kts 310°
2026-05-07 14:03 42.83326 21.16220 38116 ft 470 kts 310°
2026-05-07 14:03 42.87886 21.09796 38093 ft 472 kts 310°
2026-05-07 14:04 42.92442 21.03360 38092 ft 472 kts 310°
2026-05-07 14:04 42.96995 20.96913 38109 ft 471 kts 310°
2026-05-07 14:05 43.01532 20.90473 38091 ft 470 kts 310°
2026-05-07 14:05 43.06060 20.84033 38096 ft 469 kts 310°
2026-05-07 14:06 43.10573 20.77598 38080 ft 469 kts 310°
2026-05-07 14:06 43.15049 20.71202 38082 ft 468 kts 310°
2026-05-07 14:07 43.19545 20.64763 38081 ft 468 kts 310°
2026-05-07 14:07 43.24037 20.58312 38082 ft 468 kts 310°
2026-05-07 14:08 43.28529 20.51849 38069 ft 468 kts 310°
2026-05-07 14:08 43.33020 20.45370 38057 ft 469 kts 310°
2026-05-07 14:09 43.37512 20.38879 38060 ft 469 kts 310°
2026-05-07 14:09 43.42008 20.32366 38056 ft 470 kts 310°
2026-05-07 14:10 43.46501 20.25841 38052 ft 470 kts 310°
2026-05-07 14:10 43.50989 20.19310 38044 ft 469 kts 309°
2026-05-07 14:11 43.55470 20.12774 38047 ft 469 kts 309°
2026-05-07 14:11 43.59949 20.06223 38024 ft 469 kts 309°
2026-05-07 14:12 43.64419 19.99671 38031 ft 469 kts 309°
2026-05-07 14:12 43.68884 19.93112 38034 ft 469 kts 309°
2026-05-07 14:13 43.73349 19.86535 38024 ft 469 kts 309°
2026-05-07 14:13 43.77802 19.79965 38030 ft 468 kts 309°
2026-05-07 14:14 43.82254 19.73379 38037 ft 468 kts 309°
2026-05-07 14:14 43.86701 19.66784 38038 ft 469 kts 309°
2026-05-07 14:15 43.91150 19.60169 38032 ft 469 kts 309°
2026-05-07 14:15 43.95570 19.53585 38033 ft 469 kts 309°
2026-05-07 14:16 44.00017 19.46945 38028 ft 470 kts 309°
2026-05-07 14:16 44.04494 19.40243 38039 ft 470 kts 309°
2026-05-07 14:17 44.08910 19.33618 38021 ft 470 kts 309°
2026-05-07 14:17 44.13351 19.26939 38023 ft 470 kts 309°
2026-05-07 14:18 44.17792 19.20244 38030 ft 470 kts 308°
2026-05-07 14:18 44.22223 19.13547 38016 ft 470 kts 308°
2026-05-07 14:19 44.26649 19.06845 38022 ft 469 kts 308°
2026-05-07 14:19 44.31067 19.00136 38024 ft 469 kts 308°
2026-05-07 14:20 44.35475 18.93424 38021 ft 469 kts 308°
2026-05-07 14:20 44.39880 18.86704 38021 ft 469 kts 308°
2026-05-07 14:21 44.44279 18.79977 38021 ft 468 kts 308°
2026-05-07 14:21 44.48672 18.73241 38031 ft 469 kts 308°
2026-05-07 14:22 44.53069 18.66484 38023 ft 470 kts 308°
2026-05-07 14:22 44.57465 18.59712 38026 ft 469 kts 308°
2026-05-07 14:23 44.61858 18.52929 38018 ft 469 kts 308°
2026-05-07 14:23 44.66244 18.46138 38021 ft 469 kts 308°
2026-05-07 14:24 44.70620 18.39347 38021 ft 468 kts 308°
2026-05-07 14:24 44.74989 18.32552 38007 ft 468 kts 307°
2026-05-07 14:25 44.79350 18.25752 38044 ft 468 kts 307°
2026-05-07 14:25 44.83715 18.18927 38022 ft 469 kts 307°
2026-05-07 14:26 44.88079 18.12088 38018 ft 469 kts 307°
2026-05-07 14:26 44.92438 18.05240 38021 ft 469 kts 307°
2026-05-07 14:27 44.96762 17.98431 38025 ft 469 kts 307°
2026-05-07 14:27 45.01151 17.91501 38022 ft 472 kts 307°
2026-05-07 14:28 45.05643 17.84799 38017 ft 476 kts 313°
2026-05-07 14:28 45.10750 17.78818 38027 ft 477 kts 316°
2026-05-07 14:29 45.15916 17.72936 38027 ft 476 kts 316°
2026-05-07 14:29 45.21053 17.67028 38029 ft 476 kts 316°
2026-05-07 14:30 45.26172 17.61081 38026 ft 476 kts 315°
2026-05-07 14:30 45.31282 17.55114 38022 ft 475 kts 315°
2026-05-07 14:31 45.36384 17.49140 38040 ft 476 kts 315°
2026-05-07 14:31 45.41511 17.43126 38013 ft 479 kts 315°
2026-05-07 14:32 45.46644 17.37093 38024 ft 479 kts 315°
2026-05-07 14:32 45.51784 17.31034 38056 ft 480 kts 315°
2026-05-07 14:33 45.56940 17.24942 38022 ft 481 kts 315°
2026-05-07 14:33 45.62090 17.18847 38034 ft 481 kts 315°
2026-05-07 14:34 45.67238 17.12736 38016 ft 481 kts 315°
2026-05-07 14:34 45.72343 17.06661 38017 ft 480 kts 315°
2026-05-07 14:35 45.77472 17.00541 38014 ft 480 kts 315°
2026-05-07 14:35 45.82597 16.94412 38020 ft 480 kts 315°
2026-05-07 14:36 45.87719 16.88271 38012 ft 480 kts 314°
2026-05-07 14:36 45.92836 16.82120 38009 ft 480 kts 314°
2026-05-07 14:37 45.97953 16.75954 38020 ft 480 kts 314°
2026-05-07 14:37 46.05633 16.66670 38003 ft 481 kts 314°
2026-05-07 14:38 46.10756 16.60458 38003 ft 482 kts 314°
2026-05-07 14:38 46.15886 16.54222 38002 ft 483 kts 314°
2026-05-07 14:39 46.20154 16.49022 37999 ft 483 kts 314°
2026-05-07 14:39 46.25295 16.42743 37997 ft 484 kts 314°
2026-05-07 14:40 46.30437 16.36447 37990 ft 485 kts 314°
2026-05-07 14:40 46.35588 16.30124 37983 ft 485 kts 314°
2026-05-07 14:41 46.40789 16.23863 37972 ft 487 kts 316°
2026-05-07 14:41 46.46173 16.17868 37969 ft 488 kts 317°
2026-05-07 14:42 46.51581 16.11908 37956 ft 488 kts 317°
2026-05-07 14:42 46.56955 16.05907 37957 ft 487 kts 317°
2026-05-07 14:43 46.62314 15.99861 37950 ft 487 kts 317°
2026-05-07 14:43 46.67661 15.93799 37947 ft 487 kts 317°
2026-05-07 14:44 46.72999 15.87736 37949 ft 486 kts 317°
2026-05-07 14:44 46.78333 15.81664 37928 ft 486 kts 317°
2026-05-07 14:45 46.83631 15.75619 37921 ft 486 kts 317°
2026-05-07 14:45 46.88960 15.69521 37912 ft 486 kts 317°
2026-05-07 14:46 46.94290 15.63408 37912 ft 487 kts 317°
2026-05-07 14:46 46.99621 15.57275 37922 ft 488 kts 317°
2026-05-07 14:47 47.04997 15.51076 37918 ft 489 kts 317°
2026-05-07 14:47 47.10311 15.44933 37923 ft 490 kts 317°
2026-05-07 14:48 47.15668 15.38724 37923 ft 491 kts 316°
2026-05-07 14:48 47.21031 15.32490 37925 ft 492 kts 316°
2026-05-07 14:49 47.26405 15.26229 37930 ft 493 kts 316°
2026-05-07 14:49 47.31771 15.19960 37943 ft 491 kts 316°
2026-05-07 14:50 47.37128 15.13684 37959 ft 492 kts 316°
2026-05-07 14:50 47.42493 15.07382 37967 ft 494 kts 316°
2026-05-07 14:51 47.47875 15.01042 37953 ft 495 kts 316°
2026-05-07 14:51 47.53250 14.94695 37979 ft 494 kts 317°
2026-05-07 14:52 47.58614 14.88346 37972 ft 493 kts 317°
2026-05-07 14:52 47.63968 14.81989 37991 ft 493 kts 317°
2026-05-07 14:53 47.69307 14.75632 37984 ft 492 kts 317°
2026-05-07 14:53 47.74631 14.69275 37990 ft 491 kts 317°
2026-05-07 14:54 47.79915 14.62948 37989 ft 491 kts 317°
2026-05-07 14:54 47.85234 14.56564 37999 ft 490 kts 317°
2026-05-07 14:55 47.90543 14.50174 38011 ft 490 kts 317°
2026-05-07 14:55 47.95844 14.43775 37998 ft 491 kts 317°
2026-05-07 14:56 48.01166 14.37337 38005 ft 492 kts 317°
2026-05-07 14:56 48.06493 14.30873 38001 ft 494 kts 317°
2026-05-07 14:57 48.11822 14.24388 38001 ft 494 kts 317°
2026-05-07 14:57 48.17156 14.17880 37989 ft 495 kts 317°
2026-05-07 14:58 48.22492 14.11351 37999 ft 495 kts 317°
2026-05-07 14:58 48.27818 14.04816 37998 ft 495 kts 317°
2026-05-07 14:59 48.33142 13.98266 37997 ft 495 kts 317°
2026-05-07 14:59 48.38457 13.91709 37993 ft 494 kts 317°
2026-05-07 15:00 48.43749 13.85159 38014 ft 493 kts 317°
2026-05-07 15:00 48.49046 13.78588 38007 ft 493 kts 317°
2026-05-07 15:01 48.54342 13.71996 38008 ft 493 kts 317°
2026-05-07 15:01 48.58741 13.66510 38007 ft 493 kts 317°
2026-05-07 15:02 48.60082 13.64834 38003 ft 493 kts 317°
2026-05-07 15:02 48.65341 13.58079 38001 ft 491 kts 313°
2026-05-07 15:03 48.69906 13.50461 38012 ft 488 kts 307°
2026-05-07 15:03 48.74281 13.42598 38011 ft 488 kts 307°
2026-05-07 15:04 48.78659 13.34733 38015 ft 488 kts 307°
2026-05-07 15:04 48.83059 13.26885 38021 ft 489 kts 307°
2026-05-07 15:05 48.87442 13.19078 38019 ft 489 kts 307°
2026-05-07 15:05 48.91851 13.11207 38018 ft 489 kts 308°
2026-05-07 15:06 48.96252 13.03321 38012 ft 489 kts 307°
2026-05-07 15:06 49.00652 12.95413 38017 ft 489 kts 307°
2026-05-07 15:07 49.05039 12.87502 38026 ft 489 kts 307°
2026-05-07 15:07 49.09426 12.79568 38022 ft 489 kts 307°
2026-05-07 15:08 49.13805 12.71625 38011 ft 489 kts 307°
2026-05-07 15:08 49.18178 12.63667 38031 ft 489 kts 307°
2026-05-07 15:09 49.22549 12.55692 38014 ft 489 kts 307°
2026-05-07 15:09 49.26913 12.47703 38019 ft 489 kts 307°
2026-05-07 15:10 49.31273 12.39698 38029 ft 489 kts 307°
2026-05-07 15:10 49.35630 12.31674 38028 ft 489 kts 307°
2026-05-07 15:11 49.39985 12.23628 38022 ft 490 kts 307°
2026-05-07 15:11 49.44334 12.15571 38019 ft 490 kts 307°
2026-05-07 15:12 49.48679 12.07496 38016 ft 490 kts 307°
2026-05-07 15:12 49.53014 11.99414 38008 ft 489 kts 307°
2026-05-07 15:13 49.57340 11.91325 38005 ft 489 kts 307°
2026-05-07 15:13 49.61655 11.83231 38002 ft 488 kts 307°
2026-05-07 15:14 49.65962 11.75127 38005 ft 488 kts 307°
2026-05-07 15:14 49.70230 11.67071 38008 ft 488 kts 307°
2026-05-07 15:15 49.74520 11.58949 38023 ft 488 kts 307°
2026-05-07 15:15 49.78808 11.50805 38015 ft 488 kts 307°
2026-05-07 15:16 49.83085 11.42659 38032 ft 487 kts 307°
2026-05-07 15:16 49.87353 11.34502 38029 ft 487 kts 307°
2026-05-07 15:17 49.91611 11.26340 38039 ft 487 kts 307°
2026-05-07 15:17 49.95875 11.18142 38020 ft 488 kts 307°
2026-05-07 15:18 50.00130 11.09935 38042 ft 488 kts 307°
2026-05-07 15:18 50.04380 11.01712 38033 ft 487 kts 307°
2026-05-07 15:19 50.08624 10.93475 38035 ft 488 kts 307°
2026-05-07 15:19 50.12864 10.85218 38031 ft 488 kts 307°
2026-05-07 15:20 50.17099 10.76947 38031 ft 488 kts 307°
2026-05-07 15:20 50.21327 10.68662 38033 ft 487 kts 307°
2026-05-07 15:21 50.25541 10.60378 38036 ft 487 kts 307°
2026-05-07 15:21 50.29750 10.52079 38046 ft 487 kts 307°
2026-05-07 15:22 50.33956 10.43758 38035 ft 488 kts 307°
2026-05-07 15:22 50.38158 10.35419 38045 ft 487 kts 307°
2026-05-07 15:23 50.42352 10.27070 38041 ft 488 kts 307°
2026-05-07 15:23 50.46544 10.18699 38043 ft 488 kts 307°
2026-05-07 15:24 50.50017 10.11741 38046 ft 488 kts 307°
2026-05-07 15:24 50.54903 10.01923 38051 ft 488 kts 307°
2026-05-07 15:25 50.58372 9.94931 38046 ft 488 kts 306°
2026-05-07 15:25 50.62496 9.86595 38036 ft 472 kts 306°
2026-05-07 15:26 50.66488 9.78500 38047 ft 466 kts 306°
2026-05-07 15:26 50.70459 9.70417 38054 ft 466 kts 306°
2026-05-07 15:27 50.74421 9.62329 38054 ft 466 kts 306°
2026-05-07 15:27 50.78380 9.54223 38053 ft 466 kts 306°
2026-05-07 15:28 50.82337 9.46096 38050 ft 467 kts 306°
2026-05-07 15:28 50.86268 9.37998 38055 ft 468 kts 306°
2026-05-07 15:29 50.90254 9.29762 38049 ft 468 kts 306°
2026-05-07 15:29 50.94187 9.21609 38052 ft 469 kts 306°
2026-05-07 15:30 50.98144 9.13379 38054 ft 469 kts 306°
2026-05-07 15:30 51.02092 9.05142 38056 ft 469 kts 306°
2026-05-07 15:31 51.06035 8.96888 38054 ft 469 kts 306°
2026-05-07 15:31 51.09974 8.88619 38053 ft 469 kts 306°
2026-05-07 15:32 51.13904 8.80350 38060 ft 468 kts 306°
2026-05-07 15:32 51.17978 8.72238 38064 ft 469 kts 308°
2026-05-07 15:33 51.22098 8.64193 38072 ft 468 kts 308°
2026-05-07 15:33 51.26189 8.56096 38065 ft 468 kts 307°
2026-05-07 15:34 51.30263 8.47974 37770 ft 469 kts 307°
2026-05-07 15:34 51.32327 8.43897 37276 ft 474 kts 309°
2026-05-07 15:34 51.34578 8.40020 36822 ft 477 kts 314°
2026-05-07 15:35 51.36948 8.36286 36440 ft 478 kts 315°
2026-05-07 15:35 51.39340 8.32589 36107 ft 478 kts 315°
2026-05-07 15:35 51.41733 8.28901 35775 ft 477 kts 315°
2026-05-07 15:35 51.44105 8.25227 35407 ft 470 kts 315°
2026-05-07 15:36 51.46446 8.21576 34665 ft 468 kts 315°
2026-05-07 15:36 51.48750 8.17960 34363 ft 460 kts 315°
2026-05-07 15:36 51.51033 8.14359 34210 ft 461 kts 315°
2026-05-07 15:36 51.53326 8.10734 34089 ft 463 kts 315°
2026-05-07 15:37 51.57957 8.03389 33735 ft 465 kts 315°
2026-05-07 15:37 51.60252 7.99743 32825 ft 466 kts 315°
2026-05-07 15:37 51.62572 7.96052 31637 ft 471 kts 315°
2026-05-07 15:38 51.64914 7.92320 30441 ft 477 kts 314°
2026-05-07 15:38 51.67231 7.88621 29643 ft 472 kts 314°
2026-05-07 15:38 51.69539 7.84934 29058 ft 462 kts 314°
2026-05-07 15:38 51.71809 7.81301 28271 ft 458 kts 314°
2026-05-07 15:39 51.74065 7.77685 27383 ft 457 kts 314°
2026-05-07 15:39 51.76312 7.74078 26663 ft 453 kts 314°
2026-05-07 15:39 51.78531 7.70509 26285 ft 451 kts 314°
2026-05-07 15:39 51.80764 7.66913 26134 ft 454 kts 314°
2026-05-07 15:40 51.82988 7.63325 26075 ft 449 kts 314°
2026-05-07 15:40 51.85186 7.59777 26069 ft 446 kts 314°
2026-05-07 15:40 51.87383 7.56224 26076 ft 444 kts 314°
2026-05-07 15:40 51.89528 7.52750 26059 ft 428 kts 314°
2026-05-07 15:41 51.91591 7.49406 26058 ft 413 kts 314°
2026-05-07 15:41 51.93617 7.46117 26062 ft 410 kts 314°
2026-05-07 15:41 51.95620 7.42857 26065 ft 408 kts 314°
2026-05-07 15:41 51.97622 7.39594 26069 ft 408 kts 314°
2026-05-07 15:42 51.99622 7.36332 26073 ft 407 kts 314°
2026-05-07 15:42 52.01615 7.33077 26069 ft 407 kts 314°
2026-05-07 15:42 52.03611 7.29812 26069 ft 407 kts 313°
2026-05-07 15:42 52.05609 7.26539 26071 ft 408 kts 313°
2026-05-07 15:43 52.07605 7.23266 26071 ft 408 kts 313°
2026-05-07 15:43 52.09605 7.19984 26070 ft 409 kts 313°
2026-05-07 15:43 52.11604 7.16697 26066 ft 409 kts 313°
2026-05-07 15:43 52.13609 7.13398 26063 ft 410 kts 313°
2026-05-07 15:44 52.15542 7.10069 26057 ft 410 kts 309°
2026-05-07 15:44 52.17321 7.06470 25938 ft 407 kts 307°
2026-05-07 15:44 52.19062 7.02847 25512 ft 405 kts 307°
2026-05-07 15:44 52.20798 6.99256 25013 ft 402 kts 307°
2026-05-07 15:45 52.22538 6.95696 24504 ft 400 kts 307°
2026-05-07 15:45 52.24291 6.92182 24024 ft 398 kts 308°
2026-05-07 15:45 52.26042 6.88695 23554 ft 395 kts 308°
2026-05-07 15:45 52.27776 6.85236 23018 ft 393 kts 308°
2026-05-07 15:46 52.31199 6.78372 22031 ft 386 kts 308°
2026-05-07 15:46 52.32886 6.74976 21548 ft 384 kts 308°
2026-05-07 15:46 52.34559 6.71606 21062 ft 381 kts 308°
2026-05-07 15:47 52.36222 6.68255 20595 ft 378 kts 308°
2026-05-07 15:47 52.37876 6.64921 20141 ft 376 kts 308°
2026-05-07 15:47 52.39512 6.61619 19722 ft 372 kts 308°
2026-05-07 15:47 52.41138 6.58333 19282 ft 370 kts 308°
2026-05-07 15:48 52.42751 6.55068 18822 ft 368 kts 308°
2026-05-07 15:48 52.44355 6.51816 18392 ft 366 kts 308°
2026-05-07 15:48 52.45913 6.48587 17819 ft 356 kts 303°
2026-05-07 15:48 52.46942 6.44952 16992 ft 351 kts 282°
2026-05-07 15:49 52.47245 6.41024 16229 ft 345 kts 274°
2026-05-07 15:49 52.47420 6.37129 15549 ft 340 kts 274°
2026-05-07 15:49 52.47586 6.33273 14814 ft 339 kts 274°
2026-05-07 15:49 52.47758 6.29399 14293 ft 342 kts 274°
2026-05-07 15:50 52.47937 6.25518 13832 ft 341 kts 274°
2026-05-07 15:50 52.48120 6.21647 13373 ft 339 kts 274°
2026-05-07 15:50 52.48305 6.17803 12934 ft 337 kts 274°
2026-05-07 15:50 52.48490 6.13976 12487 ft 335 kts 274°
2026-05-07 15:51 52.48674 6.10181 12075 ft 332 kts 274°
2026-05-07 15:51 52.48855 6.06417 11667 ft 330 kts 274°
2026-05-07 15:51 52.49033 6.02676 11252 ft 328 kts 274°
2026-05-07 15:51 52.49210 5.98958 10877 ft 326 kts 274°
2026-05-07 15:52 52.49383 5.95261 10520 ft 323 kts 274°
2026-05-07 15:52 52.49554 5.91591 10158 ft 321 kts 274°
2026-05-07 15:52 52.49722 5.87973 10072 ft 313 kts 274°
2026-05-07 15:52 52.49883 5.84482 10070 ft 312 kts 274°
2026-05-07 15:53 52.50048 5.80886 10083 ft 320 kts 274°
2026-05-07 15:53 52.50215 5.77221 10081 ft 323 kts 274°
2026-05-07 15:53 52.50382 5.73538 10079 ft 324 kts 274°
2026-05-07 15:53 52.50549 5.69852 10074 ft 323 kts 274°
2026-05-07 15:54 52.50714 5.66180 10074 ft 321 kts 274°
2026-05-07 15:54 52.50873 5.62561 10062 ft 313 kts 274°
2026-05-07 15:54 52.51025 5.59072 10057 ft 299 kts 272°
2026-05-07 15:54 52.50812 5.55796 10068 ft 285 kts 251°
2026-05-07 15:55 52.50030 5.52819 10078 ft 286 kts 245°
2026-05-07 15:55 52.49182 5.49865 10077 ft 287 kts 245°
2026-05-07 15:55 52.48327 5.46897 10086 ft 288 kts 245°
2026-05-07 15:55 52.47472 5.43923 10077 ft 287 kts 245°
2026-05-07 15:56 52.46625 5.40966 10082 ft 286 kts 245°
2026-05-07 15:56 52.45781 5.38013 10078 ft 286 kts 245°
2026-05-07 15:56 52.44941 5.35063 10074 ft 285 kts 245°
2026-05-07 15:56 52.44136 5.32241 10077 ft 284 kts 245°
2026-05-07 15:57 52.43298 5.29303 10080 ft 285 kts 245°
2026-05-07 15:57 52.42458 5.26357 10079 ft 286 kts 245°
2026-05-07 15:57 52.41617 5.23407 10075 ft 285 kts 245°
2026-05-07 15:57 52.40778 5.20475 10027 ft 285 kts 245°
2026-05-07 15:58 52.39941 5.17546 9842 ft 282 kts 245°
2026-05-07 15:58 52.39109 5.14637 9475 ft 282 kts 245°
2026-05-07 15:58 52.38401 5.11691 9109 ft 278 kts 253°
2026-05-07 15:58 52.37947 5.08626 8737 ft 278 kts 257°
2026-05-07 15:59 52.37527 5.05578 8446 ft 275 kts 256°
2026-05-07 15:59 52.37100 5.02502 8090 ft 275 kts 256°
2026-05-07 15:59 52.36677 4.99466 7698 ft 270 kts 256°
2026-05-07 15:59 52.36259 4.96457 7087 ft 272 kts 256°
2026-05-07 16:00 52.35839 4.93449 6542 ft 271 kts 256°
2026-05-07 16:00 52.35423 4.90452 6017 ft 270 kts 256°
2026-05-07 16:00 52.35007 4.87463 5497 ft 267 kts 256°
2026-05-07 16:00 52.34594 4.84510 5126 ft 268 kts 256°
2026-05-07 16:01 52.34174 4.81520 5014 ft 267 kts 256°
2026-05-07 16:01 52.33767 4.78632 4996 ft 262 kts 257°
2026-05-07 16:01 52.33354 4.75694 5008 ft 267 kts 256°
2026-05-07 16:01 52.33039 4.72760 4980 ft 258 kts 271°
2026-05-07 16:02 52.33475 4.69977 4994 ft 254 kts 300°
2026-05-07 16:02 52.34693 4.67926 5004 ft 255 kts 330°
2026-05-07 16:02 52.36349 4.66889 5006 ft 257 kts 345°
2026-05-07 16:02 52.38097 4.66173 5002 ft 260 kts 347°
2026-05-07 16:03 52.39865 4.65506 5011 ft 262 kts 347°
2026-05-07 16:03 52.41667 4.65214 4988 ft 261 kts
2026-05-07 16:03 52.43342 4.66211 5001 ft 256 kts 32°
2026-05-07 16:03 52.44701 4.68073 4993 ft 255 kts 48°
2026-05-07 16:04 52.45823 4.70327 5001 ft 257 kts 52°
2026-05-07 16:04 52.46910 4.72662 5001 ft 258 kts 53°
2026-05-07 16:04 52.47972 4.75030 5009 ft 258 kts 60°
2026-05-07 16:04 52.48506 4.77797 4988 ft 256 kts 89°
2026-05-07 16:05 52.48139 4.80627 5009 ft 258 kts 118°
2026-05-07 16:05 52.46960 4.82843 5007 ft 260 kts 145°
2026-05-07 16:05 52.45449 4.84452 5009 ft 259 kts 153°
2026-05-07 16:05 52.43727 4.85194 4997 ft 257 kts 177°
2026-05-07 16:06 52.41927 4.85170 5010 ft 258 kts 182°
2026-05-07 16:06 52.40131 4.85043 5008 ft 260 kts 186°
2026-05-07 16:06 52.38425 4.84124 5000 ft 262 kts 213°
2026-05-07 16:06 52.37163 4.81970 5008 ft 265 kts 237°
2026-05-07 16:07 52.36237 4.79353 4961 ft 266 kts 241°
2026-05-07 16:07 52.35374 4.76686 4772 ft 263 kts 242°
2026-05-07 16:07 52.34539 4.74082 4710 ft 254 kts 242°
2026-05-07 16:07 52.33737 4.71576 4607 ft 244 kts 242°
2026-05-07 16:08 52.32928 4.69225 4438 ft 231 kts 238°
2026-05-07 16:08 52.32074 4.67059 4145 ft 224 kts 237°
2026-05-07 16:08 52.31216 4.64936 3906 ft 221 kts 236°
2026-05-07 16:08 52.30383 4.62895 3620 ft 213 kts 236°
2026-05-07 16:09 52.29566 4.60872 3194 ft 215 kts 237°
2026-05-07 16:09 52.28762 4.58859 3021 ft 204 kts 237°
2026-05-07 16:09 52.28009 4.56976 2695 ft 199 kts 237°
2026-05-07 16:09 52.27235 4.55043 2230 ft 200 kts 237°
2026-05-07 16:10 52.26430 4.53282 2023 ft 197 kts 219°
2026-05-07 16:10 52.25189 4.52492 2021 ft 196 kts 179°
2026-05-07 16:10 52.23900 4.53119 2000 ft 194 kts 141°
2026-05-07 16:10 52.22976 4.54654 1967 ft 186 kts 116°
2026-05-07 16:11 52.22731 4.56621 2001 ft 178 kts 84°
2026-05-07 16:11 52.23102 4.58514 2004 ft 176 kts 62°
2026-05-07 16:11 52.23695 4.60197 1978 ft 166 kts 57°
2026-05-07 16:11 52.24303 4.61778 1759 ft 160 kts 57°
2026-05-07 16:12 52.24862 4.63227 1533 ft 140 kts 56°
2026-05-07 16:12 52.25346 4.64482 1347 ft 124 kts 56°
2026-05-07 16:12 52.25810 4.65721 1200 ft 128 kts 57°
2026-05-07 16:12 52.26291 4.66968 1155 ft 135 kts 54°
2026-05-07 16:13 52.26814 4.68280 977 ft 139 kts 56°
2026-05-07 16:13 52.27320 4.69613 715 ft 137 kts 54°
2026-05-07 16:13 52.27815 4.70884 434 ft 129 kts 57°
2026-05-07 16:13 52.28289 4.72121 259 ft 127 kts 56°
2026-05-07 16:14 52.28764 4.73340 100 ft 129 kts 57°
2026-05-07 16:14 52.29232 4.74575 6 ft 121 kts 58°
2026-05-07 16:14 52.29579 4.75454 3 ft 37 kts 58°
2026-05-07 16:14 52.29736 4.75767 3 ft 35 kts 31°
2026-05-07 16:15 52.29921 4.75922 4 ft 25 kts 27°
2026-05-07 16:15 52.30001 4.75945 4 ft 18 kts 344°
2026-05-07 16:15 52.30106 4.76028 4 ft 18 kts 54°
2026-05-07 16:15 52.30195 4.76262 4 ft 18 kts 57°
2026-05-07 16:16 52.30240 4.76378 4 ft 18 kts 58°
2026-05-07 16:16 52.30306 4.76553 4 ft 18 kts 58°
2026-05-07 16:16 52.30374 4.76727 4 ft 18 kts 57°
2026-05-07 16:16 52.30441 4.76902 4 ft 18 kts 58°
2026-05-07 16:17 52.30483 4.76981 4 ft 5 kts 10°
2026-05-07 16:17 52.30535 4.76940 4 ft 9 kts 327°
2026-05-07 16:17 52.30592 4.76878 4 ft 10 kts 318°
2026-05-07 16:17 52.30634 4.76783 4 ft 11 kts 317°
2026-05-07 16:18 52.30696 4.76710 4 ft 11 kts 326°
2026-05-07 16:18 52.30746 4.76652 4 ft 3 kts 323°
2026-05-07 16:18 52.30767 4.76635 4 ft 4 kts 349°
2026-05-07 16:18 52.30791 4.76632 4 ft 0 kts 353°
2026-05-07 16:19 52.30796 4.76631 4 ft 0 kts 352°